Погода в Лаукуве

Поиск расширенной информации на нашем сайте:

Полезная информация:

Новости сайта



02.01.2020
Опубликован Долгосрочный прогноз погоды по городам России и ближнего зарубежья на январь 2020 года.
Карты: Прогноз на январь и февраль 2020 года, Сравнение прогнозируемой аномалии приземной температуры воздуха на январь 2020 года по разным моделям.




Погода в Лаукуве - сегодня

Время (UTC), дата Ветер
(°,м/с) 
Видим.   Явления Облачность Т
(°С)
Тd
(°С)
f(%) Тe
(°С)
Pmin
(гПа)
dP
(гПа)
Po
(мм)
O2
(г/м3)
Тmin Tmax R s Состояние
почвы
06 01.06.20 020 (С) 4-7{07}  20000 м    ясно 
+12.9 +2.3 48 +12  1023.6  0.3  753  289  +6.9        сухая 
09 01.06.20 040 (СВ) 6-10{10}  20000 м    5/4 1000 м верхняя 
[Cu hum|Ci fib]
+16.2 +2.9 41 +16  1022.7  -0.7  752  286           
12 01.06.20 020 (С) 5-9{13}  20000 м    9/4 1000 м средняя 
[Cu hum|Ac und]
+17 +3.9 42 +17  1021  -1.6  751  284           
15 01.06.20 040 (СВ) 7-10{12}  20000 м    9/0 средняя 
[Ac und]
+17.1 +4.1 42 +17  1019.3  -1.8  750  284           
18 01.06.20 020 (С) 5-8{11}  20000 м    8/0 средняя, верхняя 
[Sc|Ac und|Ci sp]
+15.5 +4.5 48 +15  1018.5  -0.9  749  285    +17.8       
21 01.06.20 030 (СВ) 4-7{08}  20000 м  слаб. ливневой дождь  8/6 1230 м кучево-дожд., верхняя 
[Cb cap|Ci sp]
+12.1 +5.6 64 +12  1019.3  0.6  749  288           
00 02.06.20 020 (С) 3-3{07}  20000 м  {ливн. осадки}  ясно 
+6.7 +4.7 87 +6  1019.3  -0.4  749  294      0.0     
03 02.06.20 040 (СВ) 4-5{06}  20000 м    ясно 
+5.6 +2.9 83 +4  1018.6  -0.7  749  295           
06 02.06.20 030 (СВ) 4-7{07}  20000 м    3/0 верхняя 
[Ci fib]
+11.8 +3.2 56 +11  1017.4  -0.7  748  288  +4.5    0.0    сухая 
09 02.06.20 030 (СВ) 6-9{11}  20000 м    3/3 1000 м верхняя 
[Cu hum|Ci fib]
+15.2 +4.2 48 +15  1016  -1.2  747  285           
12 02.06.20 040 (СВ) 6-9{10}  19000 м    8/5 1000 м средняя 
[Cu med, cong|Ac trans]
+17.4 +3.9 41 +17  1014.3  -1.6  746  282           
15 02.06.20 040 (СВ) 6-9{11}  20000 м    6/6 1000 м 
[Cu med, cong]
+17 +3.6 41 +17  1012.4  -1.9  745  282           
18 02.06.20 020 (С) 3-4{11}  20000 м    3/0 средняя 
[Ac trans]
+14.4 +4.7 52 +15  1011.8  -0.7  744  284    +17.8       
21 02.06.20 020 (С) 4-6{06}  20000 м    8/0 средняя 
[Ac trans]
+11.1 +3.1 58 +10  1012.3  0.2  744  288           
00 03.06.20 050 (СВ) 4-5{06}  20000 м    3/0 средняя 
[Ac trans]
+6.8 +3.1 77 +5  1011  -1.6  743  292           
03 03.06.20 050 (СВ) 4-4{05}  20000 м    6/0 средняя 
[Ac trans]
+6.1 +3.9 86 +5  1010.1  -0.9  742  292           
06 03.06.20 020 (С) 3-4{05}  20000 м    9/0 средняя 
[Ac und]
+10.4 +5.6 72 +10  1009.4  -0.3  742  287  +5.4        сухая 
09 03.06.20 060 (СВ) 7-10{11}  20000 м    10/10 1200 м 
[Sc]
+12.9 +5.5 61 +12  1008.9  -0.4  742  285           
12 03.06.20 070 (В) 5-8{10}  20000 м    10/10 840 м 
[Sc]
+12.9 +7.8 71 +12  1008.5  -0.4  742  284           
15 03.06.20 050 (СВ) 6-8{08}  20000 м    5/4 1000 м верхняя 
[Cu Sc|Ci fib]
+14.3 +7.8 65 +14  1007.3  -1  741  282           
18 03.06.20 050 (СВ) 5-8{09}  20000 м    3/3 1000 м 
[Cu hum]
+13 +7.2 68 +12  1006.6  -0.7  740  283    +15       
21 03.06.20 020 (С) 3-4{08}  20000 м    ясно 
+8.6 +7 90 +8  1006.5  -0.3  740  288           
00 04.06.20 050 (СВ) 3-4{04}  20000 м    4/0 средняя 
[Ac trans]
+7.1 +6.3 95 +6  1005.3  -1.3  739  289           
03 04.06.20 050 (СВ) 3-4{04}  19000 м    3/0 средняя 
[Ac trans]
+7 +6.4 96 +6  1004.2  -1.1  738  289           
06 04.06.20 040 (СВ) 3-4{05}  20000 м    4/0 средняя 
[Ac trans]
+11.8 +8.9 82 +12  1003.1  -0.7  738  283  +5.5        сухая 
Время (UTC), дата Ветер
(°,м/с) 
Видим.   Явления Облачность Т
(°С)
Тd
(°С)
f(%) Тe
(°С)
Pmin
(гПа)
dP
(гПа)
Po
(мм)
O2
(г/м3)
Тmin Tmax R s Состояние
почвы

Для получения пояснительной информации подведите курсор к названию столбца.

ПОГОДА в Лаукуве - архив

Всё, что Вы хотите узнать о погоде в Лаукуве - удобно и подробно!

Выберите нужную дату (начиная с 1 января 2019* года) и нажмите кнопку "Найти".
Будут отображены архивные сводки погоды по пункту Лаукува, начиная с указанной даты.


Отображать данные в формате CSV (для использования в таблицах Excel)


Внимание! Наш архив погоды предназначен исключительно для личного некоммерческого использования в познавательных целях. Если Вам необходимы официальные справки о состоянии погоды (для производственных, юридических, коммерческих и т.п. целей), обращайтесь в органы Росгидромета.

*Примечание: данная дата относится к архиву по метеостанциям СССР (Россия, СНГ, Балтия).
Архив по метеостанциям Зарубежной Европы и Азии (кроме Китая) хранится 10 дней, по другим регионам земного шара (Китай, Африка, Америка, Австралия, Океания) - 1 день.

Лаукува - район местоположения метеостанции


Название, широта, долгота, высота метеостанции:
Лаукува 55.6°ш. 22.2°д. 166 м над ур. моря [Литва]

Дополнительная информация

В oтличие oт бoльшинства пoгoдных сайтoв мы публикуем пoдрoбную метеoинфoрмацию в детальнoм прoфессиoнальнoм фoрмате.

Характеристики температуры и влажнoсти вoздуха измеряются на высoте 2 м в тени вдали oт зданий и деревьев.
Скoрoсть ветра измеряется на высoте 10 м (на урoвне рoста челoвека скoрoсть ветра ниже в 1.5-2 раза). Если метеoстанция нахoдится в гoрoде или в лесу, тo скoрoсть ветра занижена на 2-4 м/с пo сравнению с oткрытым местoм. Скoрoсть ветра над акватoриями крупных рек и oзёр, а также на вершинах хoлмoв на 2-5 м/с выше, чем в oбычных услoвиях.
Атмoсфернoе давление в разных тoчках местнoсти мoжет значительнo oтличаться oт давления на метеoстанции, в зависимoсти oт услoвий рельефа (при пoдъёме на 10 м давление пoнижается примернo на 1 мм рт.ст.).